HUBBLE
1 20580U 90037B 10167.58213882 .00000352 00000-0 14080-4 0 5854
2 20580 028.4697 243.8094 0003506 192.4456 167.6113 15.00986645904662
ISS
1 25544U 98067A 10169.01628935 .00007434 00000-0 60449-4 0 3428
2 25544 051.6478 226.3639 0009002 337.9392 086.0930 15.71871920663609
CO-58
1 28895U 05043F 10167.70728776 .00000349 00000-0 82303-4 0 6097
2 28895 098.0163 052.2010 0016574 288.4665 071.4761 14.59902138246913
FALCON
1 30776U 07006E 10167.94915607 .00000375 00000-0 29877-4 0 08690
2 30776 035.4341 045.7357 0001255 239.7126 120.3554 15.03686878180022
MAST
1 31126U 07012K 10167.60229238 .00000019 00000-0 14851-4 0 08914
2 31126 097.9366 209.6440 0093701 227.5533 131.7702 14.53594460167979
CAPE1
1 31130U 07012P 10167.72226271 -.00000071 00000-0 -56043-5 0 09131
2 31130 097.9372 207.1747 0101128 234.6241 124.5421 14.52186200167596
COMPASS
1 32787U 08021E 10167.15582752 .00000629 00000-0 86104-4 0 06995
2 32787 097.8926 231.9272 0014826 291.7834 068.1836 14.81889162115345
AAUSAT2
1 32788U 08021F 10167.76662798 .00000327 00000-0 47791-4 0 06941
2 32788 097.8918 232.6568 0014522 290.3679 069.5974 14.82031610115445
DO-64
1 32789U 08021G 10167.70807595 .00000525 00000-0 72465-4 0 07107
2 32789 097.9008 233.0718 0014389 287.8305 072.1306 14.82175495115435
CO-66
1 32791U 08021J 10167.17760339 .00000009 00000-0 78920-5 0 06935
2 32791 097.8967 231.9653 0014993 289.9639 069.9930 14.81670525115306
RS-30
1 32953U 08025A 10168.69276781 .00000010 00000-0 00000 0 0 7931
2 32953 082.5012 029.3649 0019808 099.5096 260.8222 12.43005490 93809
TACSAT-3
1 35001U 09028A 10167.52797451 .00002541 00000-0 63753-4 0 03201
2 35001 040.4545 218.0737 0021568 356.9422 003.1259 15.41799269060531
PHARMSAT
1 35002U 09028B 10167.54673035 .00002317 00000-0 57525-4 0 03015
2 35002 040.4682 215.9560 0024779 001.3421 358.7457 15.42325663060556
HAWKSAT1
1 35003U 09028C 10167.52166111 .00004977 00000-0 10570-3 0 3175
2 35003 040.4598 210.9353 0022423 015.1839 344.9649 15.45413543 60613
CP6
1 35004U 09028D 10167.51896916 .00006047 00000-0 12384-3 0 3139
2 35004 040.4601 210.0296 0021372 018.3141 341.8443 15.46239686 60612
AEROCUB3
1 35005U 09028E 10168.21895073 .00019982 00000-0 33203-3 0 3473
2 35005 040.4683 203.3273 0016670 038.4642 321.7511 15.51394789 60757
DRAGNSAT
1 35690U 09038B 10076.22711312 .05715194 12509-4 31481-3 0 3162
2 35690 051.6170 315.4586 0004999 310.9891 057.3269 16.42150010 36561
POLLUX
1 35693U 09038E 10087.99866888 .23496735 12787-4 17715-3 0 3529
2 35693 051.6099 254.5746 0006270 294.4866 097.5899 16.52338462 38395
CASTOR
1 35694U 09038F 10168.57986052 .00092287 15119-4 15501-3 0 4769
2 35694 051.6335 198.0248 0002513 009.0723 351.0341 16.02722851 51126
METEOR-M
1 35865U 09049A 10168.69724727 .00000176 00000-0 10000-3 0 3935
2 35865 098.7585 222.4926 0003074 019.1762 340.9482 14.21830590 38798
RS-38
1 35869U 09049E 10168.73905205 .00000177 00000-0 10000-3 0 4017
2 35869 098.7567 222.5664 0004948 014.7547 345.3746 14.21983510 38800
